Location: Ar Ranvel
(48.3000°N, 4.8833°W)
Time: 10:57:29
(UTC+00:00)

FALCON 9 DEB - Pass Details

Date: 16 June 2021
Orbit: 359 x 373 km, 53.0° (Epoch: 27 July)

Event Time Altitude Azimuth Distance (km) Brightness Sun altitude
Exits shadow 23:16:25 46° 211° (SSW) 522 3.2 -16.9°
Maximum altitude 23:17:08 66° 150° (SSE) 421 2.7 -16.9°
Drops below altitude 10° 23:20:14 10° 67° (ENE) 1,400 5.8 -17.1°
Sets 23:22:18 0° 65° (ENE) 2,253 6.9 -17.1°
